Location: Keppel Henge
(44.7900°N, 80.9447°W)
Time: 07:36:53
(UTC-05:00)

Vanguard 1 Rocket - Pass Details

Date: 27 October 2017
Orbit: 655 x 4222 km, 34.3° (Epoch: 21 November)

Event Time Altitude Azimuth Distance (km) Brightness Sun altitude
Rises 10:41:38 0° 264° (W) 4,048 10.4 23.4°
Reaches altitude 10° 10:45:39 10° 248° (WSW) 2,630 9.7 23.9°
Maximum altitude 10:49:32 18° 205° (SSW) 1,773 9.4 24.3°
Drops below altitude 10° 10:52:45 10° 160° (SSE) 2,104 10.9 24.6°
Sets 10:55:29 0° 140° (SE) 2,959 11.4 24.9°
